カタログに戻る

ATLAS 5 CENTAUR DEB

運用中HEO
NORAD 44686·DEBRIS·🇺🇸 United States

打ち上げ Oct 17, 2018 から Cape Canaveral Space Force Station

Loading…

次のパス (今後24時間)

TLE

経年Source: Space-Track

元期: Sep 1, 2026, 21:11 UTC

1 44686U 18079AY  26244.88302073 -.00000121  00000-0  00000+0 0  9996
2 44686  12.7781  67.9238 4630175 249.3876  56.1617  1.69097359 44874

AllMySatでATLAS 5 CENTAUR DEBをリアルタイム追跡

Download on the App Store